When you browse on this site, cookies collect data to enhance your experience and personalize the content and advertising you see.
Visit our Privacy Policy to learn more. By continuing to use the site, you agree to this use of cookies and data.
  • In Lithuania
  • List of Countries
  • For 7 days
  • Water Temperature
  • Weather Map
  • Weather Widgets
  • user-avatar
    Login

    Hourly Weather Ischgl

    Today, 22 September, Sunday

    Time Temperature Precipitation Wind Pressure Humidity
    00:00 +2°C° 0 mm 3 mps 575 mmHg 85%
    01:00 +3°C° 0 mm 3 mps 575 mmHg 86%
    02:00 +3°C° 0 mm 3 mps 575 mmHg 83%
    03:00 +3°C° 0 mm 3 mps 575 mmHg 79%
    04:00 +3°C° 0 mm 3 mps 574 mmHg 76%
    05:00 +3°C° 0 mm 3 mps 575 mmHg 76%
    06:00 +5°C° 0 mm 2 mps 575 mmHg 76%
    07:00 +6°C° 0 mm 2 mps 575 mmHg 74%
    08:00 +7°C° 0 mm 2 mps 576 mmHg 72%
    09:00 +8°C° 0 mm 2 mps 576 mmHg 70%
    10:00 +10°C° 0 mm 2 mps 577 mmHg 68%
    11:00 +10°C° 0 mm 2 mps 577 mmHg 66%
    12:00 +12°C° 0 mm 2 mps 577 mmHg 65%
    13:00 +13°C° 0 mm 2 mps 577 mmHg 63%
    14:00 +12°C° 0.2 mm 2 mps 577 mmHg 66%
    15:00 +12°C° 0.2 mm 2 mps 577 mmHg 69%
    16:00 +10°C° 0.2 mm 2 mps 576 mmHg 73%
    17:00 +9°C° 0.3 mm 2 mps 575 mmHg 79%
    18:00 +7°C° 0.3 mm 2 mps 575 mmHg 85%
    19:00 +7°C° 0.3 mm 1 mps 574 mmHg 92%
    20:00 +6°C° 0 mm 1 mps 574 mmHg 92%
    21:00 +5°C° 0 mm 2 mps 574 mmHg 92%
    22:00 +5°C° 0 mm 2 mps 573 mmHg 92%
    23:00 +4°C° 0 mm 2 mps 573 mmHg 92%

    Tomorrow, 23 September, Monday

    Time Temperature Precipitation Wind Pressure Humidity
    00:00 +4°C° 0 mm 2 mps 573 mmHg 92%
    01:00 +4°C° 0 mm 2 mps 573 mmHg 91%
    02:00 +4°C° 0 mm 2 mps 573 mmHg 92%
    03:00 +5°C° 0 mm 1 mps 573 mmHg 92%
    04:00 +5°C° 0 mm 1 mps 573 mmHg 93%
    05:00 +5°C° 0.2 mm 1 mps 573 mmHg 93%
    06:00 +5°C° 0.2 mm 1 mps 573 mmHg 94%
    07:00 +5°C° 0.2 mm 1 mps 573 mmHg 94%
    08:00 +4°C° 2 mm 2 mps 573 mmHg 95%
    09:00 +3°C° 2 mm 2 mps 573 mmHg 97%
    10:00 +1°C° 2 mm 3 mps 573 mmHg 98%
    11:00 +2°C° 3.4 mm 2 mps 573 mmHg 97%
    12:00 +1°C° 3.4 mm 2 mps 573 mmHg 97%
    13:00 +1°C° 3.4 mm 2 mps 573 mmHg 97%
    14:00 +1°C° 0.7 mm 2 mps 573 mmHg 96%
    15:00 +2°C° 0.7 mm 2 mps 573 mmHg 95%
    16:00 +3°C° 0.7 mm 1 mps 573 mmHg 94%
    17:00 +2°C° 0 mm 1 mps 573 mmHg 94%
    18:00 +1°C° 0 mm 1 mps 572 mmHg 94%
    19:00 0°C° 0 mm 1 mps 572 mmHg 94%
    20:00 0°C° 0 mm 1 mps 572 mmHg 93%
    21:00 -1°C° 0 mm 1 mps 572 mmHg 91%
    22:00 -1°C° 0 mm 1 mps 572 mmHg 90%
    23:00 -1°C° 0 mm 1 mps 572 mmHg 88%

    Day after tomorrow, 24 September, Tuesday

    Time Temperature Precipitation Wind Pressure Humidity
    00:00 -1°C° 0 mm 1 mps 572 mmHg 86%
    01:00 -2°C° 0 mm 1 mps 572 mmHg 84%
    02:00 -2°C° 0 mm 1 mps 571 mmHg 81%
    03:00 -1°C° 0 mm 1 mps 571 mmHg 78%
    04:00 -2°C° 0 mm 0 mps 571 mmHg 75%
    05:00 -1°C° 0 mm 1 mps 571 mmHg 72%
    06:00 0°C° 0 mm 1 mps 572 mmHg 69%
    07:00 +1°C° 0 mm 1 mps 572 mmHg 67%
    08:00 +3°C° 0 mm 1 mps 573 mmHg 63%
    09:00 +5°C° 0 mm 1 mps 573 mmHg 60%
    10:00 +7°C° 0 mm 1 mps 574 mmHg 57%
    11:00 +7°C° 0 mm 2 mps 574 mmHg 54%
    12:00 +8°C° 0 mm 2 mps 575 mmHg 50%
    13:00 +9°C° 0 mm 2 mps 575 mmHg 47%
    14:00 +8°C° 0 mm 2 mps 574 mmHg 49%
    15:00 +8°C° 0 mm 2 mps 574 mmHg 51%
    16:00 +8°C° 0 mm 2 mps 574 mmHg 52%
    17:00 +7°C° 0 mm 1 mps 573 mmHg 61%
    18:00 +6°C° 0 mm 1 mps 572 mmHg 70%
    19:00 +4°C° 0 mm 1 mps 571 mmHg 79%
    20:00 +4°C° 0 mm 1 mps 571 mmHg 79%
    21:00 +3°C° 0 mm 1 mps 571 mmHg 78%
    22:00 +3°C° 0 mm 1 mps 572 mmHg 78%
    23:00 +2°C° 0.2 mm 0 mps 571 mmHg 80%

    25 September, Wednesday

    Time Temperature Precipitation Wind Pressure Humidity
    00:00 +2°C° 0.2 mm 0 mps 571 mmHg 82%
    01:00 +2°C° 0.2 mm 0 mps 571 mmHg 83%
    02:00 +2°C° 0.1 mm 0 mps 571 mmHg 85%
    03:00 +2°C° 0.1 mm 0 mps 571 mmHg 87%
    04:00 +2°C° 0.1 mm 0 mps 571 mmHg 88%
    05:00 +2°C° 0.2 mm 0 mps 571 mmHg 89%
    06:00 +2°C° 0.2 mm 0 mps 570 mmHg 90%
    07:00 +2°C° 0.2 mm 0 mps 570 mmHg 90%
    08:00 +3°C° 0.3 mm 0 mps 571 mmHg 88%
    09:00 +4°C° 0.3 mm 1 mps 571 mmHg 87%
    10:00 +5°C° 0.3 mm 1 mps 571 mmHg 85%
    11:00 +4°C° 0.9 mm 1 mps 571 mmHg 89%
    12:00 +3°C° 0.9 mm 1 mps 571 mmHg 92%
    13:00 +3°C° 0.9 mm 1 mps 570 mmHg 96%
    14:00 +3°C° 0.8 mm 1 mps 570 mmHg 96%
    15:00 +2°C° 0.8 mm 1 mps 570 mmHg 96%
    16:00 +2°C° 0.8 mm 1 mps 570 mmHg 96%
    17:00 +2°C° 0.2 mm 1 mps 570 mmHg 97%
    18:00 +2°C° 0.2 mm 1 mps 570 mmHg 97%
    19:00 +2°C° 0.2 mm 1 mps 571 mmHg 97%
    20:00 +2°C° 0.2 mm 1 mps 571 mmHg 97%
    21:00 +2°C° 0.2 mm 1 mps 571 mmHg 96%
    22:00 +1°C° 0.2 mm 1 mps 571 mmHg 96%
    23:00 +1°C° 0.1 mm 1 mps 571 mmHg 95%

    26 September, Thursday

    Time Temperature Precipitation Wind Pressure Humidity
    00:00 +1°C° 0.1 mm 1 mps 571 mmHg 95%
    01:00 +1°C° 0.1 mm 1 mps 572 mmHg 95%
    02:00 +1°C° 0 mm 1 mps 571 mmHg 94%
    03:00 0°C° 0 mm 1 mps 571 mmHg 93%
    04:00 0°C° 0 mm 1 mps 571 mmHg 92%
    05:00 0°C° 0.2 mm 1 mps 572 mmHg 92%
    06:00 +1°C° 0.2 mm 1 mps 572 mmHg 92%
    07:00 +1°C° 0.2 mm 1 mps 572 mmHg 92%
    08:00 +2°C° 0.4 mm 1 mps 573 mmHg 92%
    09:00 +3°C° 0.4 mm 1 mps 574 mmHg 92%
    10:00 +4°C° 0.4 mm 1 mps 574 mmHg 92%
    11:00 +4°C° 0.2 mm 1 mps 575 mmHg 91%
    12:00 +5°C° 0.2 mm 1 mps 575 mmHg 89%
    13:00 +5°C° 0.2 mm 1 mps 575 mmHg 88%
    14:00 +6°C° 0.1 mm 1 mps 575 mmHg 85%
    15:00 +7°C° 0.1 mm 1 mps 576 mmHg 82%
    16:00 +7°C° 0.1 mm 1 mps 576 mmHg 79%
    17:00 +6°C° 0 mm 1 mps 575 mmHg 84%
    18:00 +3°C° 0 mm 0 mps 575 mmHg 88%
    19:00 +2°C° 0 mm 0 mps 574 mmHg 92%
    20:00 +1°C° 0 mm 0 mps 574 mmHg 92%
    21:00 +1°C° 0 mm 0 mps 574 mmHg 91%
    22:00 +1°C° 0 mm 0 mps 574 mmHg 90%
    23:00 +1°C° 0 mm 0 mps 574 mmHg 90%

    27 September, Friday

    Time Temperature Precipitation Wind Pressure Humidity
    00:00 +1°C° 0 mm 0 mps 574 mmHg 89%
    01:00 +1°C° 0 mm 0 mps 574 mmHg 88%
    02:00 +1°C° 0 mm 0 mps 574 mmHg 87%
    03:00 +2°C° 0 mm 1 mps 574 mmHg 86%
    04:00 +2°C° 0 mm 1 mps 574 mmHg 85%
    05:00 +3°C° 0 mm 1 mps 575 mmHg 84%
    06:00 +3°C° 0 mm 1 mps 575 mmHg 83%
    07:00 +4°C° 0 mm 1 mps 575 mmHg 83%
    08:00 +6°C° 0 mm 1 mps 576 mmHg 76%
    09:00 +8°C° 0 mm 1 mps 577 mmHg 70%
    10:00 +10°C° 0 mm 1 mps 578 mmHg 64%
    11:00 +10°C° 0 mm 1 mps 579 mmHg 62%
    12:00 +11°C° 0 mm 1 mps 579 mmHg 59%
    13:00 +12°C° 0 mm 1 mps 579 mmHg 57%
    14:00 +11°C° 0.1 mm 1 mps 578 mmHg 64%
    15:00 +10°C° 0.1 mm 1 mps 578 mmHg 72%
    16:00 +9°C° 0.1 mm 1 mps 577 mmHg 80%
    17:00 +8°C° 0.2 mm 1 mps 577 mmHg 84%
    18:00 +7°C° 0.2 mm 1 mps 576 mmHg 89%
    19:00 +6°C° 0.2 mm 1 mps 576 mmHg 93%
    20:00 +6°C° 0.3 mm 1 mps 576 mmHg 94%
    21:00 +6°C° 0.3 mm 1 mps 576 mmHg 95%
    22:00 +6°C° 0.3 mm 1 mps 577 mmHg 95%
    23:00 +6°C° 0.1 mm 1 mps 576 mmHg 95%
    Show more